| time (UTC) | temp C | wind direction | speed KPH | gust KPH | rain 1hr cm | rain 24hr cm | rain mn cm | humidity % | barometer mb |
| 20260503193339 | 16 | 223 | 4.8 | 0.0 | 0.00 | 0.00 | 0.00 | 51 | 1011.0 |
| 20260503192035 | 16 | 214 | 3.2 | 0.0 | 0.00 | 0.00 | 0.00 | 52 | 1011.0 |
| 20260503191822 | 16 | 217 | 3.2 | 0.0 | 0.00 | 0.00 | 0.00 | 51 | 1011.1 |
| 20260503190537 | 16 | 157 | 1.6 | 0.0 | 0.00 | 0.00 | 0.00 | 53 | 1011.1 |
| 20260503190341 | 16 | 156 | 3.2 | 0.0 | 0.00 | 0.00 | 0.00 | 53 | 1011.2 |
| 20260503185035 | 16 | 233 | 4.8 | 0.0 | 0.00 | 0.00 | 0.00 | 55 | 1011.2 |
| 20260503184826 | 16 | 232 | 4.8 | 0.0 | 0.00 | 0.00 | 0.00 | 55 | 1011.2 |
| 20260503183528 | 15 | 225 | 4.8 | 0.0 | 0.00 | 0.00 | 0.00 | 57 | 1011.2 |
| 20260503183332 | 15 | 225 | 3.2 | 0.0 | 0.00 | 0.00 | 0.00 | 57 | 1011.4 |
| 20260503182031 | 15 | 238 | 3.2 | 0.0 | 0.00 | 0.00 | 0.00 | 60 | 1011.4 |
| 20260503181836 | 15 | 217 | 3.2 | 0.0 | 0.00 | 0.00 | 0.00 | 60 | 1011.3 |
| 20260503180550 | 15 | 225 | 4.8 | 0.0 | 0.00 | 0.00 | 0.00 | 62 | 1011.3 |
| 20260503180337 | 15 | 252 | 4.8 | 0.0 | 0.00 | 0.00 | 0.00 | 62 | 1011.4 |
| 20260503175036 | 14 | 237 | 4.8 | 0.0 | 0.00 | 0.00 | 0.00 | 66 | 1011.4 |
| 20260503174840 | 14 | 225 | 4.8 | 0.0 | 0.00 | 0.00 | 0.00 | 67 | 1011.5 |
| 20260503173534 | 13 | 200 | 6.4 | 0.0 | 0.00 | 0.00 | 0.00 | 67 | 1011.5 |
| 20260503173338 | 13 | 259 | 6.4 | 0.0 | 0.00 | 0.00 | 0.00 | 67 | 1011.3 |
| 20260503172032 | 14 | 232 | 9.7 | 0.0 | 0.00 | 0.00 | 0.00 | 67 | 1011.3 |
| 20260503171840 | 14 | 236 | 8.0 | 0.0 | 0.00 | 0.00 | 0.00 | 65 | 1011.0 |
| 20260503170534 | 15 | 202 | 4.8 | 0.0 | 0.00 | 0.00 | 0.00 | 64 | 1011.0 |
| 20260503170321 | 15 | 241 | 4.8 | 0.0 | 0.00 | 0.00 | 0.00 | 64 | 1011.0 |
| 20260503150526 | 13 | 349 | 0.0 | 0.0 | 0.00 | 0.00 | 0.00 | 75 | 1010.9 |
| 20260503150335 | 13 | 349 | 0.0 | 0.0 | 0.00 | 0.00 | 0.00 | 75 | 1010.8 |
| 20260503130559 | 12 | 348 | 0.0 | 0.0 | 0.00 | 0.00 | 0.00 | 77 | 1009.4 |
| 20260503130328 | 12 | 348 | 0.0 | 0.0 | 0.00 | 0.00 | 0.00 | 77 | 1009.4 |
| 20260503110523 | 12 | 355 | 0.0 | 0.0 | 0.00 | 0.00 | 0.00 | 72 | 1009.5 |
| 20260503110329 | 12 | 355 | 0.0 | 0.0 | 0.00 | 0.00 | 0.00 | 72 | 1009.5 |
| 20260503090335 | 13 | 355 | 0.0 | 0.0 | 0.00 | 0.00 | 0.00 | 72 | 1009.9 |
| 20260503080534 | 13 | 355 | 0.0 | 0.0 | 0.00 | 0.00 | 0.00 | 72 | 1010.3 |
| 20260503080344 | 13 | 355 | 0.0 | 0.0 | 0.00 | 0.00 | 0.00 | 72 | 1010.4 |
| 20260503072024 | 13 | 355 | 0.0 | 0.0 | 0.00 | 0.00 | 0.00 | 72 | 1010.5 |
| 20260503071848 | 13 | 355 | 0.0 | 0.0 | 0.00 | 0.00 | 0.00 | 72 | 1010.5 |
| 20260503070542 | 13 | 355 | 0.0 | 0.0 | 0.00 | 0.00 | 0.00 | 72 | 1010.5 |
| 20260503070346 | 13 | 355 | 0.0 | 0.0 | 0.00 | 0.00 | 0.00 | 72 | 1010.5 |
| 20260503060343 | 13 | 351 | 1.6 | 0.0 | 0.00 | 0.00 | 0.00 | 70 | 1010.7 |
| 20260503055019 | 13 | 299 | 0.0 | 0.0 | 0.00 | 0.00 | 0.00 | 70 | 1010.7 |
| 20260503054825 | 13 | 299 | 0.0 | 0.0 | 0.00 | 0.00 | 0.00 | 70 | 1010.9 |
| 20260503053520 | 13 | 298 | 0.0 | 0.0 | 0.00 | 0.00 | 0.00 | 70 | 1010.9 |
| 20260503053328 | 13 | 298 | 0.0 | 0.0 | 0.00 | 0.00 | 0.00 | 70 | 1011.0 |
| 20260503052042 | 13 | 298 | 0.0 | 0.0 | 0.00 | 0.00 | 0.00 | 70 | 1011.0 |
| 20260503051849 | 13 | 298 | 0.0 | 0.0 | 0.00 | 0.00 | 0.00 | 70 | 1011.0 |
| 20260503050522 | 13 | 298 | 0.0 | 0.0 | 0.00 | 0.00 | 0.00 | 70 | 1011.0 |
| 20260503050328 | 13 | 298 | 0.0 | 0.0 | 0.00 | 0.00 | 0.00 | 70 | 1010.9 |
| 20260503045022 | 13 | 298 | 0.0 | 0.0 | 0.00 | 0.00 | 0.00 | 69 | 1010.9 |
| 20260503044827 | 13 | 298 | 0.0 | 0.0 | 0.00 | 0.00 | 0.00 | 69 | 1010.8 |
| 20260503043527 | 13 | 16 | 0.0 | 0.0 | 0.00 | 0.00 | 0.00 | 69 | 1010.8 |
| 20260503043335 | 13 | 297 | 0.0 | 0.0 | 0.00 | 0.00 | 0.00 | 69 | 1010.6 |
| 20260503042029 | 13 | 297 | 0.0 | 0.0 | 0.00 | 0.00 | 0.00 | 69 | 1010.6 |
| 20260503041834 | 13 | 297 | 0.0 | 0.0 | 0.00 | 0.00 | 0.00 | 69 | 1010.5 |
| 20260503040527 | 13 | 297 | 0.0 | 0.0 | 0.00 | 0.00 | 0.00 | 69 | 1010.5 |
| 20260503040332 | 13 | 297 | 0.0 | 0.0 | 0.00 | 0.00 | 0.00 | 69 | 1010.4 |
| 20260503035029 | 13 | 299 | 0.0 | 0.0 | 0.00 | 0.00 | 0.00 | 69 | 1010.4 |
| 20260503034839 | 14 | 299 | 0.0 | 0.0 | 0.00 | 0.00 | 0.00 | 69 | 1010.2 |
| 20260503033534 | 14 | 13 | 0.0 | 0.0 | 0.00 | 0.00 | 0.00 | 69 | 1010.2 |
| 20260503033339 | 14 | 13 | 0.0 | 0.0 | 0.00 | 0.00 | 0.00 | 69 | 1010.0 |
| 20260503032036 | 14 | 13 | 1.6 | 0.0 | 0.00 | 0.00 | 0.00 | 69 | 1010.0 |
| 20260503031846 | 14 | 14 | 1.6 | 0.0 | 0.00 | 0.00 | 0.00 | 69 | 1009.9 |
| 20260503030520 | 14 | 342 | 0.0 | 0.0 | 0.00 | 0.00 | 0.00 | 69 | 1009.9 |
| 20260503030324 | 14 | 342 | 0.0 | 0.0 | 0.00 | 0.00 | 0.00 | 69 | 1009.9 |
| 20260503025022 | 15 | 11 | 0.0 | 0.0 | 0.00 | 0.00 | 0.00 | 69 | 1009.9 |
| 20260503024827 | 15 | 11 | 0.0 | 0.0 | 0.00 | 0.00 | 0.00 | 68 | 1009.7 |
| 20260503023521 | 15 | 23 | 1.6 | 0.0 | 0.00 | 0.00 | 0.00 | 68 | 1009.7 |
| 20260503023351 | 15 | 23 | 1.6 | 0.0 | 0.00 | 0.00 | 0.00 | 67 | 1009.5 |
| 20260503022028 | 15 | 360 | 1.6 | 0.0 | 0.00 | 0.00 | 0.00 | 67 | 1009.5 |
| 20260503021833 | 15 | 18 | 1.6 | 0.0 | 0.00 | 0.00 | 0.00 | 66 | 1009.5 |
| 20260503020533 | 15 | 312 | 1.6 | 0.0 | 0.00 | 0.00 | 0.00 | 65 | 1009.5 |
| 20260503020339 | 15 | 312 | 1.6 | 0.0 | 0.00 | 0.00 | 0.00 | 65 | 1009.5 |
| 20260503015034 | 16 | 304 | 0.0 | 0.0 | 0.00 | 0.00 | 0.00 | 64 | 1009.5 |
| 20260503014823 | 16 | 317 | 0.0 | 0.0 | 0.00 | 0.00 | 0.00 | 63 | 1009.5 |
| 20260503013538 | 17 | 301 | 0.0 | 0.0 | 0.00 | 0.00 | 0.00 | 63 | 1009.5 |
| 20260503013341 | 17 | 323 | 0.0 | 0.0 | 0.00 | 0.00 | 0.00 | 62 | 1009.5 |
| 20260503012034 | 17 | 294 | 0.0 | 0.0 | 0.00 | 0.00 | 0.00 | 62 | 1009.5 |
| 20260503011822 | 17 | 294 | 0.0 | 0.0 | 0.00 | 0.00 | 0.00 | 62 | 1009.5 |
| 20260503010531 | 17 | 16 | 1.6 | 0.0 | 0.00 | 0.00 | 0.00 | 62 | 1009.5 |
| 20260503010340 | 17 | 16 | 0.0 | 0.0 | 0.00 | 0.00 | 0.00 | 62 | 1009.4 |
| 20260503005035 | 17 | 289 | 0.0 | 0.0 | 0.00 | 0.00 | 0.00 | 61 | 1009.5 |
| 20260503004900 | 17 | 283 | 0.0 | 0.0 | 0.00 | 0.00 | 0.00 | 59 | 1009.4 |
| 20260503003533 | 18 | 15 | 1.6 | 0.0 | 0.00 | 0.00 | 0.00 | 58 | 1009.4 |
| 20260503003358 | 18 | 5 | 1.6 | 0.0 | 0.00 | 0.00 | 0.00 | 56 | 1009.4 |
| 20260503002031 | 20 | 321 | 1.6 | 0.0 | 0.00 | 0.00 | 0.00 | 53 | 1009.4 |
| 20260503001820 | 20 | 40 | 1.6 | 0.0 | 0.00 | 0.00 | 0.00 | 52 | 1009.5 |
| 20260503000558 | 20 | 323 | 0.0 | 0.0 | 0.00 | 0.00 | 0.00 | 52 | 1009.5 |
| 20260503000402 | 20 | 302 | 0.0 | 0.0 | 0.00 | 0.00 | 0.00 | 52 | 1009.4 |
| 20260502235036 | 21 | 316 | 0.0 | 0.0 | 0.00 | 0.00 | 0.00 | 52 | 1009.4 |
| 20260502234839 | 21 | 319 | 0.0 | 0.0 | 0.00 | 0.00 | 0.00 | 52 | 1009.4 |
| 20260502233554 | 20 | 355 | 3.2 | 0.0 | 0.00 | 0.00 | 0.00 | 52 | 1009.4 |
| 20260502233341 | 21 | 28 | 3.2 | 0.0 | 0.00 | 0.00 | 0.00 | 50 | 1009.4 |
| 20260502232035 | 21 | 303 | 1.6 | 0.0 | 0.00 | 0.00 | 0.00 | 49 | 1009.4 |
| 20260502231823 | 21 | 232 | 1.6 | 0.0 | 0.00 | 0.00 | 0.00 | 50 | 1009.7 |
| 20260502230537 | 21 | 22 | 3.2 | 0.0 | 0.00 | 0.00 | 0.00 | 49 | 1009.7 |
| 20260502230322 | 22 | 298 | 1.6 | 0.0 | 0.00 | 0.00 | 0.00 | 48 | 1009.8 |
| 20260502225037 | 21 | 303 | 1.6 | 0.0 | 0.00 | 0.00 | 0.00 | 49 | 1009.7 |
| 20260502224825 | 22 | 267 | 1.6 | 0.0 | 0.00 | 0.00 | 0.00 | 50 | 1009.9 |
| 20260502223521 | 22 | 288 | 1.6 | 0.0 | 0.00 | 0.00 | 0.00 | 47 | 1009.9 |
| 20260502223346 | 22 | 5 | 1.6 | 0.0 | 0.00 | 0.00 | 0.00 | 50 | 1010.0 |
| 20260502222020 | 22 | 22 | 1.6 | 0.0 | 0.00 | 0.00 | 0.00 | 47 | 1010.0 |
| 20260502221828 | 22 | 325 | 0.0 | 0.0 | 0.00 | 0.00 | 0.00 | 47 | 1010.4 |
| 20260502220559 | 22 | 290 | 0.0 | 0.0 | 0.00 | 0.00 | 0.00 | 48 | 1010.4 |
| 20260502220326 | 22 | 282 | 1.6 | 0.0 | 0.00 | 0.00 | 0.00 | 47 | 1010.4 |
| 20260502215020 | 22 | 5 | 1.6 | 0.0 | 0.00 | 0.00 | 0.00 | 48 | 1010.4 |
| 20260502214844 | 22 | 150 | 0.0 | 0.0 | 0.00 | 0.00 | 0.00 | 48 | 1010.5 |
| 20260502213524 | 21 | 38 | 1.6 | 0.0 | 0.00 | 0.00 | 0.00 | 49 | 1010.5 |
| 20260502213334 | 21 | 38 | 1.6 | 0.0 | 0.00 | 0.00 | 0.00 | 48 | 1010.5 |
| 20260502212044 | 21 | 26 | 3.2 | 0.0 | 0.00 | 0.00 | 0.00 | 50 | 1010.5 |
| 20260502211832 | 21 | 26 | 3.2 | 0.0 | 0.00 | 0.00 | 0.00 | 50 | 1010.9 |
| 20260502210528 | 20 | 5 | 0.0 | 0.0 | 0.00 | 0.00 | 0.00 | 54 | 1010.8 |
| 20260502210332 | 20 | 5 | 1.6 | 0.0 | 0.00 | 0.00 | 0.00 | 52 | 1011.0 |
| 20260502205026 | 20 | 5 | 1.6 | 0.0 | 0.00 | 0.00 | 0.00 | 53 | 1011.0 |
| 20260502204834 | 21 | 5 | 1.6 | 0.0 | 0.00 | 0.00 | 0.00 | 51 | 1011.1 |
| 20260502203529 | 20 | 5 | 1.6 | 0.0 | 0.00 | 0.00 | 0.00 | 54 | 1011.1 |
| 20260502203353 | 20 | 5 | 1.6 | 0.0 | 0.00 | 0.00 | 0.00 | 52 | 1011.4 |
| 20260502202032 | 20 | 65 | 0.0 | 0.0 | 0.00 | 0.00 | 0.00 | 54 | 1011.4 |
| 20260502201816 | 20 | 109 | 0.0 | 0.0 | 0.00 | 0.00 | 0.00 | 53 | 1011.5 |
| 20260502200556 | 19 | 110 | 1.6 | 0.0 | 0.00 | 0.00 | 0.00 | 56 | 1011.5 |
| 20260502200325 | 19 | 240 | 1.6 | 0.0 | 0.00 | 0.00 | 0.00 | 57 | 1011.7 |
| 20260502195039 | 18 | 219 | 1.6 | 0.0 | 0.00 | 0.00 | 0.00 | 60 | 1011.7 |
| 20260502194824 | 18 | 219 | 1.6 | 0.0 | 0.00 | 0.00 | 0.00 | 59 | 1011.9 |
| 20260502193538 | 18 | 136 | 1.6 | 0.0 | 0.00 | 0.00 | 0.00 | 58 | 1011.9 |